, MO

(GMT )
Kansas City

Weather History for KMKC - October, 2011

Change the Weather History Date:

Thursday, October 27, 2011

  Actual Average Record
Temperature  
Mean Temperature 49 °F -  
Max Temperature 59 °F 61 °F 84 °F (1999)
Min Temperature 41 °F 45 °F 27 °F (2001)
Degree Days  
Heating Degree Days 16    
Moisture  
Dew Point 34 °F    
Average Humidity 61    
Maximum Humidity 86    
Minimum Humidity 31    
Precipitation  
Precipitation 0.00 in - - ()
Sea Level Pressure  
Sea Level Pressure 30.13 in    
Wind  
Wind Speed 4 mph (North)    
Max Wind Speed 12 mph    
Max Gust Speed 18 mph    
Visibility 10 miles    
Events Rain    
Averages and records for this station are not official NWS values.
T = Trace of Precipitation, MM = Missing Value Source: NWS Daily Summary

Daily Weather History Graph

Daily Weather History Graph

Search for Another Location

Airport or City:

Trip Planner

Search our weather history database for the weather conditions in past years. The results will help you decide how hot, cold, wet, or windy it might be!

Date:

Astronomy

Oct. 27, 2011 Rise Set
Actual Time 7:40 AM CDT 6:23 PM CDT
Civil Twilight 7:12 AM CDT 6:51 PM CDT
Nautical Twilight 6:41 AM CDT 7:22 PM CDT
Astronomical Twilight 6:10 AM CDT 7:53 PM CDT
Moon 8:43 AM CDT (10/27) 6:54 PM CDT (10/27)
Length of Visible Light 11h 38m
Length of Day
10h 43m
New Moon, 1% of the Moon is Illuminated
Oct 27
New Moon
Nov 2
First Quarter
Nov 10
Full
Nov 18
Last Quarter
Nov 25
New

Hourly Weather History & Observations

Time (CDT) Temp. Windchill Dew Point Humidity Pressure Visibility Wind Dir Wind Speed Gust Speed Precip Events Conditions
12:54 AM 50.0 °F - 39.9 °F 68% 30.08 in 10.0 mi NNW 5.8 mph - 0.00 in Rain Light Rain
1:54 AM 48.0 °F - 41.0 °F 77% 30.09 in 9.0 mi WNW 4.6 mph - 0.00 in Rain Light Rain
2:54 AM 46.4 °F - 41.0 °F 81% 30.09 in 10.0 mi Calm Calm - N/A   Overcast
3:54 AM 46.9 °F - 39.9 °F 77% 30.09 in 10.0 mi NNW 6.9 mph - 0.00 in Rain Light Rain
4:54 AM 45.0 °F - 39.9 °F 82% 30.09 in 10.0 mi Calm Calm - 0.00 in   Overcast
5:54 AM 45.0 °F 43.5 °F 39.0 °F 80% 30.11 in 10.0 mi NW 3.5 mph - N/A   Clear
6:54 AM 44.1 °F - 39.9 °F 85% 30.11 in 10.0 mi Calm Calm - N/A   Partly Cloudy
7:54 AM 41.0 °F - 37.0 °F 86% 30.11 in 10.0 mi Calm Calm - N/A   Clear
8:54 AM 44.1 °F - 37.9 °F 79% 30.14 in 10.0 mi Calm Calm - N/A   Clear
9:54 AM 46.0 °F - 39.9 °F 79% 30.17 in 10.0 mi Calm Calm - N/A   Clear
10:54 AM 48.9 °F - 39.9 °F 71% 30.16 in 10.0 mi Calm Calm - N/A   Clear
11:54 AM 53.1 °F - 34.0 °F 48% 30.15 in 10.0 mi NE 10.4 mph - N/A   Clear
12:54 PM 55.9 °F - 36.0 °F 47% 30.13 in 10.0 mi NNE 10.4 mph 16.1 mph N/A   Clear
1:54 PM 57.0 °F - 30.0 °F 36% 30.11 in 10.0 mi North 11.5 mph 18.4 mph N/A   Scattered Clouds
2:54 PM 57.9 °F - 27.0 °F 31% 30.11 in 10.0 mi North 9.2 mph - N/A   Clear
3:54 PM 55.9 °F - 26.1 °F 32% 30.11 in 10.0 mi North 6.9 mph - N/A   Clear
4:54 PM 54.0 °F - 26.1 °F 34% 30.11 in 10.0 mi NNE 6.9 mph - N/A   Clear
5:54 PM 53.1 °F - 25.0 °F 34% 30.12 in 10.0 mi NE 5.8 mph - N/A   Clear
6:54 PM 52.0 °F - 24.1 °F 34% 30.14 in 10.0 mi Calm Calm - N/A   Clear
7:54 PM 50.0 °F - 30.2 °F 47% 30.16 in 10.0 mi Calm Calm - N/A   Clear
8:54 PM 46.9 °F - 34.0 °F 61% 30.17 in 10.0 mi Calm Calm - N/A   Clear
9:54 PM 46.0 °F - 33.1 °F 61% 30.18 in 10.0 mi Calm Calm - N/A   Clear
10:54 PM 43.0 °F - 33.1 °F 68% 30.19 in 10.0 mi Calm Calm - N/A   Clear
11:54 PM 41.0 °F - 33.1 °F 73% 30.20 in 10.0 mi Calm Calm - N/A   Clear